Hourly Data Report for May 20, 2021

OTTAWA INTL A
ONTARIO
Current Station Operator: NAVCAN

45°19'00.000" N
75°40'00.000" W
114.90 m
6106001
71628
YOW

Download Data

Hourly Data (May 2021)
Hourly Data Report for May 20, 2021
TIME
LST
Temp Definition
°C
Dew Point Definition
°C
Rel Hum Definition
%
Precip. Amount Definition
mm

Wind Dir Definition
10's deg

Wind Spd Definition
km/h
Visibility Definition
km
Stn Press Definition
kPa
Hmdx Definition


Wind Chill Definition


Weather Definition


00:00 17.7 10.9 64   19 3 24.1 101.27     LegendNANA
01:00 17.8 11.3 65   20 7 24.1 101.31     Cloudy
02:00 17.2 11.6 69   21 7 24.1 101.33     LegendNANA
03:00 15.8 11.7 76   20 10 24.1 101.35     LegendNANA
04:00 16.5 11.5 72   19 10 24.1 101.36     Mostly Cloudy
05:00 16.5 11.7 73   19 11 24.1 101.43     LegendNANA
06:00 17.0 11.8 71   17 12 24.1 101.47     LegendNANA
07:00 19.2 12.7 66   18 10 24.1 101.50     Mostly Cloudy
08:00 20.7 13.6 63   17 10 24.1 101.51     LegendNANA
09:00 23.8 12.6 49   22 8 24.1 101.50 26   LegendNANA
10:00 26.1 11.3 39   25 10 24.1 101.51 28   Mostly Cloudy
11:00 27.5 11.4 36   24 12 24.1 101.48 29   LegendNANA
12:00 28.6 11.6 34   36 3 24.1 101.43 31   LegendNANA
13:00 29.1 12.2 35   18 7 24.1 101.39 31   Mostly Cloudy
14:00 28.6 12.5 36   32 10 24.1 101.38 31   LegendNANA
15:00 27.5 12.5 39   34 16 24.1 101.40 30   LegendNANA
16:00 26.7 11.9 39   34 17 24.1 101.40 29   Mostly Cloudy
17:00 26.4 14.2 47   3 10 24.1 101.37 30   LegendNANA
18:00 25.8 13.7 47   12 5 24.1 101.35 29   LegendNANA
19:00 24.0 14.7 55   11 5 24.1 101.35 28   Mostly Cloudy
20:00 22.1 15.0 64   12 7 24.1 101.38 26   LegendNANA
21:00 19.6 14.2 71   11 9 24.1 101.41     LegendNANA
22:00 20.6 13.9 65   14 10 24.1 101.40     Mostly Cloudy
23:00 20.8 13.4 62   17 8 24.1 101.40     LegendNANA

Notes on Data Quality.

Legend

  • E = Estimated
  • M = Missing
  • NA = Not Available*
  • [empty] = Indicates an unobserved value
Date modified: